Weather History for Raleigh-Durham Airport, NC

Change the Weather History Date:

Sunday, June 16, 2013

  Actual Average Record
Temperature  
Mean Temperature 75 °F 77 °F  
Max Temperature 87 °F 87 °F 98 °F (1981)
Min Temperature 62 °F 66 °F 52 °F (1997)
Degree Days  
Heating Degree Days 0 0  
Month to date heating degree days 0 0  
Since 1 June heating degree days 0 0  
Since 1 July heating degree days 3320 3243  
Cooling Degree Days 10 12  
Month to date cooling degree days 161 160  
Year to date cooling degree days 339 369  
Since 1 June cooling degree days 161 160  
Growing Degree Days 24 (Base 50)    
Moisture  
Dew Point 62 °F    
Average Humidity 65    
Maximum Humidity 78    
Minimum Humidity 51    
Precipitation  
Precipitation 0.00 in 0.12 in 1.73 in (1895)
Month to date precipitation 6.85 1.89  
Year to date precipitation 25.88 18.92  
Sea Level Pressure  
Sea Level Pressure 30.07 in    
Wind  
Wind Speed 10 mph (SW)    
Max Wind Speed 20 mph    
Max Gust Speed 28 mph    
Visibility 10 miles    
Events      
T = Trace of Precipitation, MM = Missing Value Source: NWS Daily Summary

Daily Weather History Graph

Daily Weather History Graph

Search for Another Location

Airport:

Trip Planner

Search our weather history database for the weather conditions in past years. The results will help you decide how hot, cold, wet, or windy it might be!

Date:

Astronomy

Jun. 16, 2013 Rise Set
Actual Time 5:58 AM EDT 8:33 PM EDT
Civil Twilight 5:28 AM EDT 9:03 PM EDT
Nautical Twilight 4:50 AM EDT 9:41 PM EDT
Astronomical Twilight 4:08 AM EDT 10:23 PM EDT
Moon 1:18 PM EDT (6/16) 12:50 AM EDT (6/16)
Length of Visible Light 15h 35m
Length of Day
14h 35m
Waxing Crescent, 49% of the Moon is Illuminated
Jun 16
Waxing Crescent
Jun 16
First Quarter
Jun 23
Full
Jun 30
Last Quarter
Jul 8
New

Hourly Weather History & Observations

Time (EDT) Temp. Heat Index Dew Point Humidity Pressure Visibility Wind Dir Wind Speed Gust Speed Precip Events Conditions
12:51 AM 70.0 °F - 57.0 °F 63% 30.09 in 10.0 mi SW 10.4 mph - N/A   Partly Cloudy
1:51 AM 68.0 °F - 55.9 °F 65% 30.10 in 10.0 mi SW 10.4 mph - N/A   Clear
2:51 AM 66.0 °F - 55.0 °F 68% 30.09 in 10.0 mi SW 8.1 mph - N/A   Clear
3:51 AM 64.9 °F - 54.0 °F 68% 30.09 in 10.0 mi WSW 5.8 mph - N/A   Partly Cloudy
4:51 AM 64.0 °F - 53.1 °F 67% 30.09 in 10.0 mi SW 6.9 mph - N/A   Partly Cloudy
5:51 AM 63.0 °F - 54.0 °F 72% 30.10 in 10.0 mi WSW 6.9 mph - N/A   Scattered Clouds
6:51 AM 63.0 °F - 55.0 °F 75% 30.12 in 10.0 mi SW 6.9 mph - N/A   Mostly Cloudy
7:51 AM 66.9 °F - 57.9 °F 73% 30.13 in 10.0 mi WSW 5.8 mph - N/A   Mostly Cloudy
8:51 AM 72.0 °F - 59.0 °F 64% 30.13 in 10.0 mi WSW 9.2 mph - N/A   Scattered Clouds
9:51 AM 77.0 °F - 62.1 °F 60% 30.12 in 10.0 mi SW 13.8 mph - N/A   Mostly Cloudy
10:51 AM 77.0 °F - 64.0 °F 64% 30.10 in 10.0 mi SW 15.0 mph - N/A   Scattered Clouds
11:51 AM 81.0 °F 83.0 °F 66.0 °F 60% 30.09 in 10.0 mi SW 16.1 mph - N/A   Scattered Clouds
12:51 PM 82.9 °F 85.0 °F 66.0 °F 56% 30.07 in 10.0 mi SW 16.1 mph 23.0 mph N/A   Scattered Clouds
1:51 PM 84.0 °F 86.3 °F 66.0 °F 55% 30.04 in 10.0 mi SW 16.1 mph - N/A   Scattered Clouds
2:51 PM 86.0 °F 88.8 °F 66.9 °F 53% 30.04 in 10.0 mi SW 15.0 mph - N/A   Scattered Clouds
3:51 PM 86.0 °F 88.8 °F 66.9 °F 53% 30.03 in 10.0 mi WSW 13.8 mph - N/A   Scattered Clouds
4:51 PM 86.0 °F 88.8 °F 66.9 °F 53% 30.02 in 10.0 mi SW 11.5 mph - N/A   Scattered Clouds
5:51 PM 84.0 °F 86.3 °F 66.0 °F 55% 30.01 in 10.0 mi SW 10.4 mph - N/A   Scattered Clouds
6:51 PM 82.9 °F 85.0 °F 66.0 °F 56% 30.01 in 10.0 mi WSW 10.4 mph - N/A   Mostly Cloudy
7:51 PM 80.1 °F 81.9 °F 64.9 °F 60% 30.01 in 10.0 mi WSW 6.9 mph - N/A   Mostly Cloudy
8:51 PM 75.9 °F - 66.0 °F 71% 30.01 in 10.0 mi WSW 4.6 mph - N/A   Mostly Cloudy
9:51 PM 77.0 °F - 64.9 °F 66% 30.02 in 10.0 mi SSW 6.9 mph - N/A   Mostly Cloudy
10:51 PM 75.0 °F - 64.9 °F 71% 30.03 in 10.0 mi SW 6.9 mph - N/A   Mostly Cloudy
11:51 PM 75.9 °F - 64.0 °F 67% 30.04 in 10.0 mi SW 10.4 mph 19.6 mph N/A   Mostly Cloudy